This is the latest recevied weather packets stored in our database for station/object OK3MS-5. If no packets are shown the sender has not sent any weather packets the latest 10 day(s).
| Time | Temp. | Humidity | Pressure | Rain* | Wind** | Luminosity | Snow |
|---|---|---|---|---|---|---|---|
| 1777370703 | 15° C | 38% | 1019.1 hPa | 0 mm | - | 744 W/m² | - |
| 1777370406 | 14.44° C | 36% | 1019.2 hPa | 0 mm | - | 702 W/m² | - |
| 1777370105 | 14.44° C | 38% | 1019.1 hPa | 0 mm | - | 585 W/m² | - |
| 1777369804 | 14.44° C | 36% | 1019.2 hPa | 0 mm | - | 586 W/m² | - |
| 1777369504 | 14.44° C | 37% | 1019.1 hPa | 0 mm | - | 638 W/m² | - |
| 1777369205 | 15° C | 36% | 1019.1 hPa | 0 mm | - | 564 W/m² | - |
| 1777368904 | 14.44° C | 38% | 1019.1 hPa | 0 mm | - | 483 W/m² | - |
| 1777368604 | 14.44° C | 39% | 1019.2 hPa | 0 mm | - | 511 W/m² | - |
| 1777368305 | 14.44° C | 37% | 1019.3 hPa | 0 mm | - | 501 W/m² | - |
| 1777368005 | 14.44° C | 37% | 1019.2 hPa | 0 mm | - | 468 W/m² | - |
| 1777367703 | 14.44° C | 38% | 1019.3 hPa | 0 mm | - | 519 W/m² | - |
| 1777367404 | 14.44° C | 37% | 1019.2 hPa | 0 mm | - | 438 W/m² | - |
| 1777367105 | 14.44° C | 37% | 1019.2 hPa | 0 mm | - | 495 W/m² | - |
| 1777366803 | 15° C | 36% | 1019.1 hPa | 0 mm | - | 563 W/m² | - |
| 1777366504 | 14.44° C | 36% | 1019.2 hPa | 0 mm | - | 518 W/m² | - |
| 1777366203 | 13.89° C | 37% | 1019.4 hPa | 0 mm | - | 471 W/m² | - |
| 1777365903 | 13.89° C | 37% | 1019.3 hPa | 0 mm | - | 389 W/m² | - |
| 1777365602 | 13.89° C | 37% | 1019.3 hPa | 0 mm | - | 464 W/m² | - |
| 1777365306 | 13.89° C | 37% | 1019.2 hPa | 0 mm | - | 519 W/m² | - |
| 1777365007 | 13.89° C | 36% | 1019.3 hPa | 0 mm | - | 532 W/m² | - |
| 1777364705 | 13.89° C | 37% | 1019.4 hPa | 0 mm | - | 504 W/m² | - |
| 1777364404 | 13.89° C | 36% | 1019.3 hPa | 0 mm | - | 368 W/m² | - |
| 1777364103 | 13.89° C | 37% | 1019.4 hPa | 0 mm | - | 424 W/m² | - |
| 1777363805 | 13.89° C | 38% | 1019.3 hPa | 0 mm | - | 391 W/m² | - |
| 1777363503 | 13.33° C | 38% | 1019.4 hPa | 0 mm | - | 498 W/m² | - |
* Rain latest hour (hover to see other rain measurements)
** Current wind speed in m/s (hover to see current wind gust speed)